Overview Statistics Trail Chart Weather Telemetry Raw packets
 

This is the latest recevied weather packets stored in our database for station/object SP6PGH-13. If no packets are shown the sender has not sent any weather packets the latest 10 day(s).

<< 1 2 3 4 5 6 7 >>
Time Temp. Humidity Pressure Rain* Wind** Luminosity Snow
1788551801 17.22° C 85% 996.9 hPa 0.76 mm - - -
1788550900 18.33° C 84% 996.7 hPa 0.76 mm - - -
1788549999 21.67° C 63% 995.5 hPa - - - -
1788549098 22.78° C 63% 995.4 hPa - - - -
1788548197 23.33° C 64% 995 hPa - - - -
1788547296 23.89° C 68% 994.5 hPa - - - -
1788546395 24.44° C 61% 993.1 hPa - - - -
1788545494 23.89° C 62% 993.2 hPa - - - -
1788544593 24.44° C 62% 992.9 hPa - - - -
1788543692 24.44° C 62% 993.1 hPa - - - -
1788542791 24.44° C 63% 993.3 hPa - - 1 W/m² -
1788541890 24.44° C 61% 993.6 hPa - - 11 W/m² -
1788540989 24.44° C 61% 993.7 hPa - - 9 W/m² -
1788540088 25° C 62% 993.8 hPa - - 20 W/m² -
1788539187 25° C 61% 994 hPa - - 29 W/m² -
1788538286 25° C 60% 994 hPa - - 33 W/m² -
1788537385 25° C 61% 994.2 hPa - - 54 W/m² -
1788536483 24.44° C 62% 994.2 hPa - - 77 W/m² -
1788535582 25° C 62% 994.4 hPa - - 92 W/m² -
1788534681 25.56° C 58% 994.5 hPa - - 201 W/m² -
1788533780 25.56° C 58% 994.8 hPa - - 163 W/m² -
1788532879 25.56° C 60% 994.9 hPa - - 135 W/m² -
1788531978 25.56° C 59% 995.1 hPa - - 153 W/m² -
1788531076 26.11° C 57% 995.3 hPa - - 447 W/m² -
1788530175 25.56° C 57% 995.6 hPa - - 263 W/m² -

* Rain latest hour (hover to see other rain measurements)
** Current wind speed in m/s (hover to see current wind gust speed)